CZ-6A DEB, 61330

Orbit data source: Space-Track

CZ-6A DEB, 61330 is space debris in LEO originally from a launch on Tue, 06 Aug 2024 UTC launched from the Taiyaun Space Center, China (TSC). Debris objects in space refer to the collection of defunct objects orbiting the Earth. Examples of debris include non-operational satellites, rocket bodies, and fragments generated from explosions, collisions, or faulty payload assembly.

Loading next visibility...
Identifier
61330, 2024-140UT
Orbit
LEO
Country
Flag of CNCN / PRC
Related business
Manufacturer
SAST
Mission
Spacecraft
Bus & Motor
Unknown
Mass
Unknown
Launch date (UTC)
2024-08-06 (1 year ago)
Launch vehicle
Unknown
Launch site
Taiyaun Space Center, China (TSC)
Object type
Payload
Rocket body
Debris
Shape & HBR
Unknown shape, 0.1 m
Radar Cross Section
Small (<0.1 m²)

Expand to show TLE details & history
Last TLE update: 2 days ago

TLE from 2 days ago
0 CZ-6A DEB
1 61330U 24140UT  25311.91019759  .00003974  00000-0  99257-3 0  9995
2 61330  88.8494 288.9290 0077281 303.6099  55.7748 14.49610129 62358
Epoch: 2025-11-07T21:50Z
TLE epoch observation values (Epoch: 2025-11-07T21:50:41.071Z)
Latitude
-0.00005°
Longitude
-86.08952°
Altitude
699.419 km
Speed
7.522 km/s
True Right ascension
19h 15m 42s
True Declination
0° 00' 00"
Sunlit
Object was in daylight at epoch
Visualization orbit readout
Latitude
Unknown
Longitude
Unknown
Altitude
Unknown
Speed
Unknown
Apparent Right ascension
Unknown
Apparent Declination
Unknown
Sunlit
N/A
Visualization observer readout
Local Sidereal Time
11:24:27
Azimuth
Unknown
Elevation
Unknown
Doppler factor
Unknown
Orbital elements
Apogee altitude
778.716 km
Perigee altitude
668.947 km
Semi-major axis
7,101.969 km
Eccentricity
0.00773
Inclination
88.8494°
RAAN
288.929°
Arg. of periapsis
303.6099°
True anomaly
56.511°
Mean anomaly
55.7748°
Eccentric anomaly
56.1425°
Mean motion
3.62639 °/min
Orbital period
99.27 mins
BSTAR
0.00099257
Loading maneuver chart data...
Computing Atmospheric mass density...
Loading historical data...
Loading historical data...
Loading historical data...
Loading historical data...
Loading historical data...
Loading historical data...
Loading historical data...

Documentation

Showing up to 5 results
|